Location: ????????
(48.4099°N, 37.8561°E)
Time: 06:27:39
(UTC+00:00)

Daily predictions for brighter satellites

Satellite Brightness Start Highest point End
(mag) Time Altitude Azimuth Time Altitude Azimuth Time Altitude Azimuth
Cosmos 2297 Rocket 2.8 14:37:36 10° NNW 14:42:52 38° NE 14:48:07 10° ESE
Meteor 1-11 4.3 14:37:59 10° N 14:43:41 66° ENE 14:49:25 10° SSE
CSL-04 DEB 4.3 14:40:38 10° NNE 14:44:36 76° ESE 14:48:31 10° S
CORIOLIS 4.1 14:44:53 10° SSE 14:50:13 77° ENE 14:55:36 10° NNW
ERS-2 2.4 14:47:03 10° NNE 14:50:36 45° E 14:54:06 10° S
FengYun 1-2 T 4.3 14:45:03 10° SSE 14:50:37 62° ENE 14:56:11 10° N
Cosmos 1110 Rocket 4.1 14:48:43 10° S 14:53:53 62° ESE 14:59:03 10° NNE
COSMO-SKYMED 1 3.6 14:50:16 10° NE 14:53:55 25° E 14:57:32 10° SSE
Cosmos 1340 3.7 14:51:07 10° NNE 14:54:20 26° ENE 14:57:32 10° SE
Timation 2 Rocket 4.1 14:48:12 10° NNW 14:54:47 69° ENE 15:01:34 10° SE
COSMOS 2487 3.9 14:51:41 10° NW 14:54:58 42° WSW 14:58:13 10° S
H-2A R/B 2.4 14:52:00 10° N 14:56:09 66° WNW 15:00:13 10° SSW
ADEOS Rocket 3.5 14:50:07 10° NNE 14:56:29 80° WNW 15:03:33 10° SSW
Lacrosse 5 3.0 14:55:26 10° WNW 15:00:04 34° NNW 15:04:41 10° NE
USA 281 3.5 14:54:42 10° SSE 15:01:15 75° WSW 15:07:52 10° NNW
Meteor 2-21 Rocket 4.4 14:55:05 10° N 15:01:17 69° ENE 15:07:23 10° SSE
Aureole 3 3.9 15:00:26 10° SE 15:02:55 22° E 15:05:19 10° NE
Envisat 4.1 14:58:04 10° S 15:03:00 50° W 15:07:58 10° NNW
Cosmos 1825 Rocket 3.6 14:59:04 10° N 15:03:33 86° E 15:07:58 10° S
Cosmos 292 Rocket 3.9 15:00:18 10° S 15:04:56 53° ESE 15:09:39 10° NNE
Okean O Rocket 2.2 15:03:28 10° S 15:07:47 62° WSW 15:12:07 10° NNW
YAOGAN 1 3.5 15:06:27 10° ESE 15:10:03 26° ENE 15:13:39 10° N
Feng Yun 1-1 Rocket 4.4 15:05:04 10° SSE 15:10:55 70° ENE 15:16:51 10° NNW
CZ-2C R/B 3.9 15:07:23 10° SE 15:12:30 34° ENE 15:17:31 10° N
FALCON 9 DEB 4.1 15:09:53 10° WNW 15:13:06 36° N 15:15:37 15° ENE
Cosmos 2219 3.3 15:07:28 10° NNW 15:13:12 62° ENE 15:18:54 10° SE
Cosmos 1553 Rocket 4.4 15:09:52 10° SSE 15:15:41 39° E 15:21:26 10° NNE
SMAP 4.0 15:11:09 10° S 15:15:41 53° W 15:20:16 10° NNW
ERBS 4.3 15:13:14 10° NW 15:15:45 19° N 15:18:15 10° NE
FALCON 9 DEB 3.4 15:13:23 10° SW 15:16:30 46° SE 15:18:41 17° ENE
Cosmos 1943 Rocket 4.5 15:13:06 10° WNW 15:16:31 16° NW 15:19:56 10° N
Cosmos 1726 Rocket 3.5 15:15:57 10° S 15:20:16 73° E 15:24:39 10° NNE
FALCON 9 DEB 3.2 15:17:41 10° SW 15:20:49 53° SSE 15:22:50 19° ENE
Cosmos 1455 3.7 15:19:03 10° SE 15:21:06 16° E 15:21:06 16° E
Cosmos 2082 4.3 15:16:30 10° NNW 15:21:48 36° NE 15:26:52 11° ESE
Meteor 2-10 Rocket 4.3 15:17:44 10° SSE 15:22:09 28° E 15:26:27 10° NNE
USA 307 3.2 15:21:25 10° WNW 15:25:38 52° NNE 15:28:30 19° E
ATLAS 5 CENTAUR R/B 3.8 15:23:57 10° WNW 15:27:07 18° NNW 15:30:37 10° NNE
Cosmos 2228 3.3 15:23:23 10° SSW 15:27:37 71° WNW 15:31:55 10° N
Cosmos 1939 Rocket 2.7 15:25:11 10° SSE 15:29:08 75° ENE 15:33:04 10° N
USA 308 3.2 15:26:15 10° WNW 15:30:29 54° NNE 15:33:09 21° E
CZ-4B R/B 1.9 15:28:50 10° N 15:32:02 56° WNW 15:35:08 10° SSW
FALCON 9 DEB 3.0 15:29:30 10° SW 15:32:42 62° SSE 15:34:19 26° ENE
CZ-4 R/B 4.4 15:29:01 10° SSE 15:33:08 66° ENE 15:37:18 10° N
ARGOS 4.0 15:31:38 13° ESE 15:35:35 29° ENE 15:40:11 10° N
Cosmos 1606 Rocket 4.1 15:31:34 10° SSW 15:35:53 63° WNW 15:40:17 10° N
Helios 1A Rocket 2.9 15:31:54 10° SSE 15:35:58 63° ENE 15:40:02 10° N
SL-08 R/B 4.4 15:30:53 10° N 15:37:02 65° ENE 15:43:06 10° SSE
Cosmos 1745 Rocket 4.1 15:33:58 10° N 15:40:05 51° ENE 15:46:14 10° SSE
Cosmos 1656 3.8 15:35:15 10° S 15:40:38 53° ESE 15:46:08 10° NE
Okean-O 2.6 15:36:43 10° SSE 15:41:05 64° ENE 15:45:29 10° N
SKYMED 2 3.5 15:37:50 10° NNE 15:42:13 76° ESE 15:46:33 10° S
BREEZE-M R/B 3.5 15:40:14 10° W 15:43:58 78° N 15:48:27 22° E
FALCON 9 DEB 2.8 15:41:12 10° WSW 15:44:25 79° SSE 15:45:35 36° ENE
H-2A R/B 2.5 15:40:50 10° SE 15:45:56 43° ENE 15:51:05 10° N
GEOS 3 Rocket 3.9 15:43:25 19° ESE 15:47:10 55° NE 15:52:27 10° NW
Cosmos 2227 Rocket 2.1 15:41:35 10° NNW 15:47:17 83° ENE 15:52:56 10° SSE
Ariane Rocket 4.4 15:47:25 19° NE 15:47:25 19° NE 15:50:51 10° NNE
Cosmos 1689 Rocket 1.9 15:45:44 10° NNE 15:48:38 87° WNW 15:51:30 10° SSW
Cosmos 1400 Rocket 2.8 15:45:01 10° S 15:49:08 89° W 15:53:14 10° NNE
PSLV R/B 3.8 15:47:06 10° NNE 15:51:19 78° ESE 15:55:27 10° S
Cosmos 2263 Rocket 3.4 15:48:24 10° N 15:52:49 22° NE 15:53:51 21° ENE
CZ-4 R/B 1.1 15:49:05 10° SSE 15:52:58 76° ENE 15:56:50 10° N
NOSS 3-4 (A) 4.4 15:46:49 10° NW 15:53:07 39° NNE 15:56:44 25° E
NOSS 3-4 (C) 4.4 15:46:55 10° NW 15:53:12 39° NNE 15:56:49 25° E
CSL-04 Rocket 3.9 15:47:53 10° SE 15:53:13 51° ENE 15:58:33 10° N
Cosmos 2058 2.9 15:49:23 10° N 15:53:26 55° ENE 15:57:27 10° SSE
CZ-4C R/B 3.9 15:50:22 10° NW 15:55:52 27° NNE 15:59:14 20° ENE
Cosmos 220 Rocket 4.4 15:51:48 10° S 15:55:54 41° ESE 15:57:24 30° ENE
Cosmos 1892 2.6 15:52:06 10° N 15:56:00 83° E 15:59:53 10° S
Meteor 2-1 Rocket 4.3 15:53:52 10° SSE 15:59:09 50° E 16:04:29 10° NNE
Cosmos 1408 2.5 15:57:15 10° N 16:00:52 61° ENE 16:02:50 25° SSE
NOSS 3-3 (A) 4.2 15:58:26 10° S 16:03:54 45° ESE 16:06:48 27° ENE
NOSS 3-3 (C) 4.2 15:58:31 10° S 16:04:01 44° ESE 16:06:55 28° ENE
Cosmos 1697 Rocket 2.9 15:59:37 10° S 16:04:55 45° ESE 16:07:49 25° NE
USA 215 3.7 16:04:18 27° ENE 16:07:39 49° NNE 16:13:53 10° WNW
SeaSat 1 2.7 16:06:40 36° E 16:08:08 47° NE 16:12:53 10° NNW
Cosmos 2058 Rocket 3.7 16:04:43 10° SSW 16:09:08 57° WNW 16:13:36 10° N
Cosmos 1709 Rocket 4.2 16:03:41 10° N 16:09:53 50° ENE 16:14:56 16° SE
CRYOSAT 2 4.3 16:07:41 10° N 16:12:32 62° E 16:17:21 10° S
CZ-2D R/B 4.2 16:09:03 10° S 16:12:44 47° W 16:16:26 10° NNW
SL-4 R/B 1.9 16:09:36 10° WNW 16:13:10 58° NNE 16:13:29 55° NE
Cosmos 1346 Rocket 2.8 16:10:25 10° NNW 16:14:26 83° W 16:18:25 10° S
ATLAS 2AS CENTAUR R/B 3.4 16:08:04 10° NW 16:15:17 42° NNE 16:17:50 32° ENE
USA 305 2.8 16:12:09 10° WNW 16:16:28 85° NNE 16:17:18 58° ESE
Cosmos 44 4.2 16:12:43 10° WSW 16:17:06 45° NW 16:20:38 16° NNE
Cosmos 1825 2.4 16:13:38 10° N 16:16:47 52° NNE 16:16:47 52° NNE
SJ-11-01 4.1 16:15:01 14° SSE 16:19:04 79° ENE 16:23:46 10° NNW
Cosmos 1315 Rocket 2.6 16:16:15 10° S 16:20:11 70° E 16:20:29 67° ENE
USA 306 2.8 16:18:33 10° WNW 16:22:52 89° SSW 16:23:25 67° ESE
Cosmos 968 Rocket 4.0 16:19:14 10° NNW 16:24:23 59° WSW 16:29:26 10° S
Aureole 3 Rocket 4.4 16:21:31 10° SW 16:25:25 44° WNW 16:30:49 10° N
Cosmos 883 Rocket 4.4 16:20:39 10° S 16:26:40 59° E 16:32:40 10° NNE
Cosmos 2297 Rocket 3.4 16:21:40 10° NW 16:27:00 43° WSW 16:32:17 10° S
Cosmos 1980 Rocket 3.3 16:22:29 10° S 16:25:27 27° SSE 16:25:27 27° SSE
MOS 1 Rocket 3.2 16:24:22 10° NNE 16:29:02 77° ESE 16:33:59 10° S
COSMO-SKYMED 1 4.1 16:26:10 10° N 16:30:10 37° WNW 16:34:09 10° SW
Cosmos 2315 Rocket 4.0 16:24:30 10° SSE 16:30:28 52° E 16:36:27 10° NNE
S3M 3.9 16:25:01 10° S 16:31:09 85° W 16:37:22 10° N
Cosmos 1076 Rocket 3.5 16:28:51 10° NNW 16:33:07 78° W 16:34:44 37° S
CSL-04 Debris 4.3 16:28:08 10° S 16:33:35 77° WSW 16:39:05 10° NNW
Cosmos 2360 4.1 16:37:47 10° SSW 16:43:27 69° ESE 16:44:09 63° ENE
Lacrosse 5 2.8 16:39:28 10° NW 16:44:05 34° NNE 16:44:18 34° NNE
YAOGAN 1 4.0 16:41:59 10° SSW 16:46:00 37° W 16:50:03 10° NNW
CZ-2C R/B 4.3 16:46:42 10° S 16:52:13 45° W 16:57:38 10° NNW
Cosmos 1812 Rocket 3.9 16:49:16 10° SSW 16:58:42 - N 16:53:14 62° WSW
Meteor 2-3 Rocket 4.2 16:48:04 10° N 16:52:25 46° NNE 16:52:25 46° NNE
Cosmos 1455 3.5 16:53:09 10° SSW 16:56:10 38° W 16:56:10 38° W
Cosmos 2278 4.4 16:51:13 10° SSW 16:54:45 39° S 16:54:45 39° S
USA 307 4.1 17:01:34 10° WNW 17:04:41 40° W 17:04:41 40° W
USA 308 4.3 17:06:25 10° WNW 17:09:20 36° W 17:09:20 36° W
ATLAS 5 CENTAUR R/B 4.1 17:10:42 10° NNW 17:13:29 16° N 17:13:29 16° N
ARGOS 3.9 17:13:10 29° SSW 17:15:36 50° W 17:20:54 10° NNW
Cosmos 2369 4.1 17:14:53 10° SW 17:20:32 61° WNW 17:21:09 58° NNW
H-2A R/B 3.8 17:20:40 10° SSW 17:25:27 32° W 17:30:19 10° NNW
Ariane Rocket 4.1 17:27:38 39° NNW 17:27:38 39° NNW 17:30:51 10° NNW
Cosmos 2263 Rocket 3.1 17:31:46 10° NNW 17:35:34 44° NNW 17:35:34 44° NNW
NOSS 3-4 (A) 3.9 17:37:38 10° NW 17:44:12 71° WSW 17:44:12 71° WSW
NOSS 3-4 (C) 3.9 17:37:44 10° NW 17:44:16 72° W 17:44:16 72° W
CZ-4C R/B 3.2 17:38:50 10° NW 17:44:25 54° N 17:44:25 54° N
SeaSat 1 4.1 17:46:27 29° W 17:46:27 29° W 17:50:10 10° NW
Cosmos 1697 Rocket 4.0 17:43:54 10° WSW 17:49:01 35° NW 17:49:37 35° NW
USA 215 3.6 17:51:39 62° WNW 17:51:39 62° WNW 17:56:59 10° NW
ATLAS 2AS CENTAUR R/B 3.3 17:59:19 10° NW 18:05:17 55° WNW 18:05:17 55° WNW
